TimeCST,TemperatureF,Dew PointF,Humidity,Sea Level PressureIn,VisibilityMPH,Wind Direction,Wind SpeedMPH,Gust SpeedMPH,PrecipitationIn,Events,Conditions,WindDirDegrees,DateUTC
12:15 AM,45.0,45.0,100,29.84,3.0,SE,6.9,-,0.01,Rain,Rain,130,2013-01-11 06:15:00
12:35 AM,45.7,45.7,100,29.82,2.5,SE,9.2,-,0.02,Rain,Light Rain,130,2013-01-11 06:35:00
12:55 AM,47.3,47.3,100,29.81,2.5,SE,8.1,-,0.04,Rain,Rain,130,2013-01-11 06:55:00
1:15 AM,48.7,48.7,100,29.78,2.5,SE,13.8,-,0.07,Rain,Heavy Rain,130,2013-01-11 07:15:00
1:35 AM,48.4,48.4,100,29.78,2.5,SE,11.5,16.1,0.10,Rain,Light Rain,130,2013-01-11 07:35:00
1:55 AM,50.0,50.0,100,29.80,4.0,South,13.8,26.5,0.16,Rain,Heavy Rain,170,2013-01-11 07:55:00
2:15 AM,49.1,49.1,100,29.79,4.0,South,11.5,21.9,0.03,Rain,Rain,170,2013-01-11 08:15:00
2:35 AM,49.1,49.1,100,29.79,5.0,South,10.4,-,0.04,Rain,Light Rain,180,2013-01-11 08:35:00
2:55 AM,49.1,49.1,100,29.77,4.0,South,11.5,-,0.09,Rain,Light Rain,170,2013-01-11 08:55:00
3:15 AM,48.4,48.4,100,29.75,3.0,SSE,10.4,-,N/A,Rain,Light Rain,160,2013-01-11 09:15:00
3:35 AM,48.0,48.0,100,29.70,2.5,ESE,5.8,-,0.01,Rain,Light Rain,120,2013-01-11 09:35:00
3:55 AM,49.1,49.1,100,29.67,2.5,SE,16.1,23.0,0.03,Rain,Light Rain,130,2013-01-11 09:55:00
4:15 AM,49.5,49.5,100,29.69,3.0,SSE,10.4,-,N/A,,Mist,160,2013-01-11 10:15:00
4:35 AM,50.4,50.4,100,29.69,2.0,South,11.5,-,N/A,,Mist,180,2013-01-11 10:35:00
4:55 AM,50.4,50.4,100,29.70,0.8,SSW,8.1,-,N/A,,Mist,200,2013-01-11 10:55:00
5:15 AM,50.0,50.0,100,29.69,0.2,SSW,5.8,-,N/A,Fog,Fog,200,2013-01-11 11:15:00
5:35 AM,49.3,49.3,100,29.68,0.2,South,4.6,-,N/A,Fog,Fog,180,2013-01-11 11:35:00
5:55 AM,49.6,49.6,100,29.69,0.2,SSW,6.9,-,N/A,Fog,Fog,210,2013-01-11 11:55:00
6:15 AM,49.1,49.1,100,29.70,0.2,SW,5.8,-,0.01,Rain,Light Rain,220,2013-01-11 12:15:00
6:35 AM,50.0,50.0,100,29.71,0.2,SW,8.1,-,0.03,Rain,Rain,220,2013-01-11 12:35:00
6:55 AM,51.3,51.3,100,29.71,5.0,SW,10.4,-,0.06,Rain,Light Rain,230,2013-01-11 12:55:00
7:15 AM,51.1,51.1,100,29.73,10.0,WSW,17.3,24.2,N/A,,Unknown,240,2013-01-11 13:15:00
7:35 AM,50.5,50.5,100,29.74,10.0,WSW,16.1,-,N/A,,Unknown,240,2013-01-11 13:35:00
7:55 AM,50.0,50.0,100,29.75,10.0,WSW,12.7,-,N/A,,Unknown,240,2013-01-11 13:55:00
8:15 AM,49.5,49.5,100,29.76,10.0,WSW,16.1,19.6,N/A,,Unknown,240,2013-01-11 14:15:00
8:35 AM,48.4,48.4,100,29.78,7.0,SW,15.0,-,N/A,,Unknown,230,2013-01-11 14:35:00
8:55 AM,47.5,47.5,100,29.78,4.0,WSW,17.3,-,N/A,,Mist,240,2013-01-11 14:55:00
9:15 AM,47.5,47.5,100,29.79,7.0,SW,13.8,17.3,N/A,,Unknown,230,2013-01-11 15:15:00
9:35 AM,47.3,47.3,100,29.79,3.0,SW,10.4,-,N/A,,Mist,230,2013-01-11 15:35:00
9:55 AM,47.7,47.7,100,29.80,5.0,SW,15.0,18.4,N/A,,Mist,230,2013-01-11 15:55:00
10:15 AM,47.8,47.8,100,29.81,7.0,WSW,10.4,-,N/A,,Unknown,240,2013-01-11 16:15:00
10:35 AM,47.8,47.8,100,29.80,4.0,WSW,10.4,-,N/A,,Mist,240,2013-01-11 16:35:00
10:55 AM,48.2,48.2,100,29.79,3.0,SW,9.2,-,N/A,,Mist,230,2013-01-11 16:55:00
11:15 AM,48.4,48.4,100,29.78,1.5,SSW,9.2,-,N/A,,Mist,210,2013-01-11 17:15:00
11:35 AM,48.9,48.9,100,29.77,2.0,SSW,12.7,-,N/A,,Mist,200,2013-01-11 17:35:00
11:55 AM,48.7,48.7,100,29.77,3.0,SSW,13.8,21.9,N/A,,Mist,210,2013-01-11 17:55:00
12:15 PM,49.1,49.1,100,29.76,4.0,SW,15.0,20.7,N/A,,Mist,220,2013-01-11 18:15:00
12:35 PM,50.2,50.2,100,29.76,7.0,SSW,12.7,-,N/A,,Unknown,210,2013-01-11 18:35:00
12:55 PM,50.2,50.2,100,29.75,7.0,SSW,15.0,-,N/A,,Unknown,210,2013-01-11 18:55:00
1:15 PM,50.4,50.4,100,29.75,7.0,SSW,11.5,-,N/A,,Unknown,200,2013-01-11 19:15:00
1:35 PM,51.1,50.9,99,29.76,10.0,SSW,10.4,-,N/A,,Unknown,200,2013-01-11 19:35:00
1:55 PM,51.8,50.7,96,29.76,10.0,South,9.2,-,N/A,,Unknown,180,2013-01-11 19:55:00
2:15 PM,52.3,51.3,96,29.75,10.0,SSW,12.7,-,N/A,,Unknown,200,2013-01-11 20:15:00
2:35 PM,52.7,50.9,94,29.76,10.0,SSW,15.0,20.7,N/A,,Unknown,200,2013-01-11 20:35:00
2:55 PM,52.5,50.9,94,29.75,10.0,South,13.8,18.4,N/A,,Unknown,180,2013-01-11 20:55:00
3:15 PM,52.7,50.9,94,29.75,10.0,South,12.7,-,N/A,,Unknown,180,2013-01-11 21:15:00
3:35 PM,52.0,50.9,96,29.74,10.0,SSE,12.7,18.4,N/A,,Unknown,160,2013-01-11 21:35:00
3:55 PM,51.8,50.9,97,29.73,10.0,SSE,12.7,-,N/A,,Unknown,160,2013-01-11 21:55:00
4:15 PM,51.8,50.9,97,29.73,10.0,South,12.7,-,N/A,,Unknown,170,2013-01-11 22:15:00
4:35 PM,51.8,50.9,97,29.73,10.0,South,12.7,-,N/A,,Unknown,170,2013-01-11 22:35:00
4:55 PM,51.4,50.9,98,29.73,10.0,South,11.5,-,N/A,,Unknown,170,2013-01-11 22:55:00
5:15 PM,51.3,50.7,98,29.73,10.0,South,12.7,-,N/A,,Unknown,170,2013-01-11 23:15:00
5:35 PM,51.4,50.4,96,29.73,10.0,South,16.1,-,N/A,,Unknown,180,2013-01-11 23:35:00
5:55 PM,50.9,49.8,96,29.74,10.0,South,12.7,-,N/A,,Unknown,170,2013-01-11 23:55:00
6:15 PM,50.4,49.5,97,29.74,10.0,South,13.8,-,N/A,,Unknown,170,2013-01-12 00:15:00
6:35 PM,50.0,49.3,97,29.74,10.0,South,12.7,-,N/A,,Unknown,180,2013-01-12 00:35:00
6:55 PM,49.8,49.1,97,29.74,10.0,South,11.5,-,N/A,,Unknown,180,2013-01-12 00:55:00
7:15 PM,50.0,49.3,97,29.73,10.0,South,13.8,18.4,N/A,,Unknown,170,2013-01-12 01:15:00
7:35 PM,49.6,49.1,98,29.73,10.0,South,13.8,-,N/A,,Unknown,170,2013-01-12 01:35:00
7:55 PM,50.0,49.3,97,29.71,10.0,South,15.0,19.6,N/A,,Unknown,170,2013-01-12 01:55:00
8:15 PM,50.5,49.3,95,29.72,10.0,South,16.1,23.0,N/A,,Unknown,180,2013-01-12 02:15:00
8:35 PM,51.1,49.5,94,29.72,10.0,South,16.1,-,N/A,,Unknown,190,2013-01-12 02:35:00
8:55 PM,51.4,49.6,94,29.71,10.0,South,18.4,24.2,N/A,,Unknown,190,2013-01-12 02:55:00
9:15 PM,51.4,49.6,94,29.72,10.0,South,15.0,20.7,N/A,,Unknown,190,2013-01-12 03:15:00
9:35 PM,51.8,49.8,93,29.71,10.0,SSW,18.4,24.2,N/A,,Unknown,200,2013-01-12 03:35:00
9:55 PM,51.4,49.6,94,29.71,10.0,SSW,18.4,-,N/A,,Unknown,200,2013-01-12 03:55:00
10:15 PM,51.3,49.5,94,29.72,10.0,SSW,18.4,24.2,N/A,,Unknown,200,2013-01-12 04:15:00
10:35 PM,51.3,49.5,94,29.72,10.0,SSW,17.3,23.0,N/A,,Unknown,200,2013-01-12 04:35:00
10:55 PM,51.6,49.6,93,29.73,10.0,SSW,16.1,25.3,N/A,,Unknown,200,2013-01-12 04:55:00
11:15 PM,51.4,49.5,93,29.73,10.0,SSW,15.0,24.2,N/A,,Unknown,200,2013-01-12 05:15:00
11:35 PM,51.3,49.5,94,29.73,10.0,South,15.0,21.9,N/A,,Unknown,190,2013-01-12 05:35:00
11:55 PM,51.3,49.6,94,29.73,10.0,SSW,15.0,21.9,N/A,,Unknown,200,2013-01-12 05:55:00